COSMOS 2251 DEB, 34321

Orbit data source: Space-Track

COSMOS 2251 DEB, 34321 is space debris in LEO originally from a launch on Wed, 16 Jun 1993 UTC launched from the Plesetsk Missile And Space Complex (PKMTR). The debris from Iridium 33, an American commercial communications satellite, has been tracked extensively since its accidental collision with the defunct Russian satellite Cosmos 2251 in 2009. This event, occurring at high speed in low Earth orbit (LEO), generated thousands of pieces of space debris, significantly increasing the risk of further collisions. The Iridium 33 debris cloud has impacted space traffic management and orbital debris mitigation strategies, making it a subject of ongoing study in space situational awareness.

Loading next visibility...
Identifier
34321, 1993-036NT
Orbit
LEO
Country
Flag of CISCIS
Related business
Manufacturer
Unknown
Mission
Spacecraft
Bus & Motor
Unknown
Mass
Unknown
Launch date (UTC)
1993-06-16 (32 years ago)
Launch vehicle
Unknown
Launch site
Plesetsk Missile And Space Complex (PKMTR)
Object type
Payload
Rocket body
Debris
Shape & HBR
Unknown shape, 0.1 m
Radar Cross Section
Small (<0.1 m²)

Expand to show TLE details & history
Last TLE update: 12 hours ago

TLE from 12 hours ago
0 COSMOS 2251 DEB
1 34321U 93036NT  25299.60250301  .00003103  00000-0  81102-3 0  9990
2 34321  74.0291 244.8964 0014350  19.4501 157.8116 14.49759479878032
Epoch: 2025-10-26T14:27Z
TLE epoch observation values (Epoch: 2025-10-26T14:27:36.260Z)
Latitude
2.4768°
Longitude
172.07346°
Altitude
738.218 km
Speed
7.481 km/s
True Right ascension
04h 16m 45s
True Declination
2° 27' 43"
Sunlit
Object was in full shadow at epoch
Visualization orbit readout
Latitude
Unknown
Longitude
Unknown
Altitude
Unknown
Speed
Unknown
Apparent Right ascension
Unknown
Apparent Declination
Unknown
Sunlit
N/A
Visualization observer readout
Local Sidereal Time
21:58:51
Azimuth
Unknown
Elevation
Unknown
Doppler factor
Unknown
Orbital elements
Apogee altitude
734.235 km
Perigee altitude
713.852 km
Semi-major axis
7,102.181 km
Eccentricity
0.00144
Inclination
74.0291°
RAAN
244.8964°
Arg. of periapsis
19.4501°
True anomaly
157.8736°
Mean anomaly
157.8116°
Eccentric anomaly
157.84261°
Mean motion
3.62623 °/min
Orbital period
99.28 mins
BSTAR
0.00081102
Loading maneuver chart data...
Computing Atmospheric mass density...

Documentation

Showing up to 5 results
|